{"data":{"norad_id":52737,"intl_designator":"2022-057F","name":"GHGSAT-C3","alt_names":[],"object_type":"PAYLOAD","status":"ACTIVE","operator":null,"country":"CA","launch_date":"2022-05-25","launch_site_code":"AFETR","launch_vehicle":null,"mission":null,"orbit_class":"UNKNOWN","rcs_meters":null,"size_class":null,"mass_kg":null,"dimensions":null,"purposes":[],"wikipedia_slug":null,"has_3d_model":false,"image_url":null,"decayed_at":null,"tle_current":{"epoch":"2026-09-20T22:38:00.502368Z","epoch_age_seconds":93431,"freshness":"FRESH","line1":"1 52737U 22057F   26263.94306137  .00004928  00000+0  14580-3 0  9995","line2":"2 52737  97.6727  53.3456 0006759 133.3517 226.8290 15.35391597240227","mean_motion":15.35391597,"eccentricity":0.0006759,"inclination_deg":97.6727,"raan_deg":53.3456,"arg_perigee_deg":133.3517,"mean_anomaly_deg":226.829,"bstar":0.0001458,"rev_number":24022,"period_min":93.787148686603,"perigee_km":455.13585828267,"apogee_km":464.3793241911,"semimajor_km":6837.8945912369,"source":"CELESTRAK","updated_at":"2026-09-21T09:00:08.714675Z"}}}